FW4758 Weather Reports


Display with metric or nautical units.
time (UTC)temp
F
wind
direction
speed
MPH
gust
MPH
rain 1hr
in
rain 24hr
in
rain mn
in
humidity
%
barometer
mb
20260904211547 95 171 6.0 13.0 0.00 0.22 0.22 43 1009.4
20260904210047 97 229 4.0 11.0 0.00 0.22 0.22 44 1009.6
20260904204544 94 97 4.0 11.0 0.00 0.22 0.22 46 1009.9
20260904203043 96 167 4.0 12.0 0.00 0.22 0.22 45 1010.1
20260904201540 95 184 6.0 14.0 0.00 0.22 0.22 47 1010.2
20260904200051 95 155 6.0 13.0 0.00 0.22 0.22 47 1010.6
20260904194536 94 165 6.0 16.0 0.00 0.22 0.22 47 1010.9
20260904193038 93 190 8.0 15.0 0.00 0.22 0.22 50 1011.0
20260904191539 92 119 6.0 13.0 0.00 0.22 0.22 50 1011.2
20260904190034 93 118 6.0 14.0 0.00 0.22 0.22 48 1011.3
20260904184532 93 203 8.0 14.0 0.00 0.22 0.22 48 1011.5
20260904183036 93 120 6.0 14.0 0.00 0.22 0.22 49 1011.7
20260904181537 93 204 4.0 9.0 0.00 0.22 0.22 50 1011.8
20260904180028 92 360 5.0 13.0 0.00 0.22 0.22 49 1012.1
20260904174531 92 166 6.0 12.0 0.00 0.22 0.22 52 1012.1
20260904173024 90 191 5.0 11.0 0.00 0.22 0.22 55 1012.3
20260904171521 89 163 7.0 15.0 0.00 0.22 0.22 59 1012.5
20260904170019 89 189 7.0 14.0 0.00 0.22 0.22 57 1012.7
20260904164517 88 159 7.0 12.0 0.00 0.22 0.22 61 1012.7
20260904163013 87 186 5.0 14.0 0.00 0.22 0.22 64 1012.9
20260904161510 86 191 7.0 12.0 0.00 0.22 0.22 66 1013.0
20260904160007 85 214 5.0 11.0 0.00 0.22 0.22 71 1012.8
20260904154504 84 209 9.0 13.0 0.00 0.22 0.22 74 1012.8
20260904153002 83 222 8.0 14.0 0.00 0.22 0.22 77 1012.8
20260904144547 79 126 5.0 10.0 0.00 0.22 0.22 87 1012.8
20260904143043 78 146 5.0 8.0 0.00 0.22 0.22 87 1012.8
20260904141541 78 161 2.0 10.0 0.00 0.22 0.22 87 1012.8
20260904140042 78 154 4.0 8.0 0.00 0.22 0.22 87 1012.7
20260904134539 78 117 4.0 9.0 0.00 0.22 0.22 87 1012.5
20260904133045 77 166 4.0 7.0 0.00 0.22 0.22 87 1012.5
20260904131542 77 83 4.0 6.0 0.00 0.22 0.22 86 1012.2
20260904130036 76 115 3.0 8.0 0.00 0.22 0.22 86 1012.1
20260904124533 76 123 4.0 8.0 0.00 0.22 0.22 86 1011.9
20260904123031 76 142 3.0 6.0 0.00 0.22 0.22 86 1011.7
20260904121529 76 132 3.0 7.0 0.00 0.22 0.22 86 1011.6
20260904120029 76 98 5.0 8.0 0.00 0.22 0.22 86 1011.4
20260904114529 76 113 5.0 8.0 0.00 0.22 0.22 86 1011.4
20260904113039 76 151 3.0 5.0 0.00 0.22 0.22 86 1011.3
20260904111536 76 125 3.0 5.0 0.00 0.22 0.22 86 1011.2
20260904110027 76 121 2.0 6.0 0.00 0.22 0.22 86 1011.1
20260904104527 76 140 3.0 5.0 0.00 0.22 0.22 86 1011.0
20260904103026 76 139 2.0 6.0 0.00 0.22 0.22 86 1011.1
20260904101525 76 162 3.0 5.0 0.00 0.22 0.22 86 1011.0
20260904100029 76 146 3.0 6.0 0.00 0.22 0.22 86 1010.9
20260904094533 76 121 4.0 7.0 0.00 0.22 0.22 86 1010.9
20260904093023 76 156 3.0 7.0 0.00 0.22 0.22 86 1010.7
20260904091523 76 132 4.0 8.0 0.00 0.22 0.22 86 1010.8
20260904090023 76 138 4.0 8.0 0.00 0.22 0.22 86 1010.8
20260904084524 76 131 2.0 5.0 0.00 0.22 0.22 87 1010.8
20260904083035 76 179 3.0 9.0 0.00 0.22 0.22 87 1010.7
20260904081520 76 181 6.0 11.0 0.00 0.22 0.22 86 1010.6
20260904080024 76 136 6.0 12.0 0.00 0.22 0.22 87 1010.8
20260904074518 76 174 5.0 10.0 0.00 0.22 0.22 86 1010.8
20260904073022 76 157 3.0 8.0 0.00 0.22 0.22 86 1011.0
20260904071517 76 174 4.0 7.0 0.00 0.22 0.22 86 1011.0
20260904070017 75 122 5.0 10.0 0.00 0.22 0.22 86 1011.0
20260904064516 75 160 5.0 9.0 0.00 0.22 0.22 87 1011.0
20260904063015 75 139 5.0 9.0 0.03 0.22 0.22 87 1011.2
20260904061514 75 121 5.0 9.0 0.22 0.22 0.22 87 1011.2
20260904060017 75 140 4.0 8.0 0.22 0.22 0.22 87 1011.5
20260904054532 75 183 3.0 9.0 0.22 0.22 0.22 87 1011.3
20260904053015 76 196 7.0 11.0 0.18 0.18 0.18 86 1011.2
20260904051512 78 128 4.0 9.0 0.00 0.00 0.00 82 1011.6
20260904050010 78 138 5.0 13.0 0.00 0.00 0.00 81 1011.2
20260904044505 78 124 9.0 16.0 0.00 0.00 0.00 80 1010.9
20260904043004 78 112 9.0 16.0 0.00 0.00 0.00 79 1010.9
20260904041501 79 143 9.0 15.0 0.00 0.00 0.00 77 1011.0
20260904040004 79 103 9.0 16.0 0.00 0.00 0.00 76 1011.0
20260904034501 79 101 7.0 14.0 0.00 0.00 0.00 76 1011.1
20260904033003 79 115 11.0 16.0 0.00 0.00 0.00 75 1011.0
20260904031605 79 119 10.0 14.0 0.00 0.00 0.00 74 1010.8
20260904030101 80 111 9.0 15.0 0.00 0.00 0.00 73 1010.7
20260904024602 80 123 11.0 16.0 0.00 0.00 0.00 73 1010.6
20260904023105 80 120 7.0 16.0 0.00 0.00 0.00 72 1010.4
20260904021558 80 94 8.0 15.0 0.00 0.00 0.00 72 1010.2
20260904014618 78 98 9.0 13.0 0.00 0.00 0.00 86 1009.6
20260904013118 78 116 8.0 17.0 0.00 0.00 0.00 86 1009.5
20260904011556 77 139 6.0 15.0 0.00 0.00 0.00 86 1009.2
20260904010113 76 103 7.0 15.0 0.00 0.00 0.00 86 1009.1
20260904004555 78 133 9.0 16.0 0.00 0.00 0.00 86 1008.9
20260904003104 78 172 8.0 14.0 0.00 0.00 0.00 86 1008.8
20260904001553 81 137 10.0 19.0 0.00 0.00 0.00 82 1008.9
20260904000053 86 115 13.0 18.0 0.00 0.00 0.00 66 1008.8
20260903234553 88 151 8.0 18.0 0.00 0.00 0.00 61 1008.7
20260903233059 89 117 11.0 19.0 0.00 0.00 0.00 60 1008.4
20260903231552 89 121 11.0 18.0 0.00 0.00 0.00 62 1008.3
20260903230057 89 105 12.0 16.0 0.00 0.00 0.00 62 1008.3
20260903224551 89 98 10.0 16.0 0.00 0.00 0.00 62 1008.2
20260903223104 90 153 8.0 17.0 0.00 0.00 0.00 62 1008.4
20260903221548 89 104 7.0 14.0 0.00 0.00 0.00 63 1008.4
20260903220048 90 101 13.0 19.0 0.00 0.00 0.00 62 1008.4
20260903214551 90 96 10.0 18.0 0.00 0.00 0.00 63 1008.5
20260903213045 89 98 10.0 16.0 0.00 0.00 0.00 65 1008.6